Location: A�t Bou Chrif
(32.7193°N, 5.2385°W)
Time: 04:23:43
(UTC+00:00)

NOSS 3-2 (C) - Pass Details

Date: 08 August 2020
Orbit: 800 x 1413 km, 63.4° (Epoch: 15 September)

Event Time Altitude Azimuth Distance (km) Brightness Sun altitude
Exits shadow 21:35:52 31° 55° (NE) 1,507 4.3 -26.6°
Drops below altitude 10° 21:39:07 10° 40° (NE) 2,628 5.8 -27.1°
Sets 21:41:52 0° 36° (NE) 3,661 6.6 -27.5°
